Location: ??????
(55.6130°N, 37.7882°E)
Time: 15:18:15
(UTC+00:00)

COBE Rocket - Visible Passes

Search period start: 18 July 2024 00:00
Search period end: 28 July 2024 00:00
Orbit: 678 x 776 km, 97.1° (Epoch: 17 July)

Date Brightness Start Highest point End Pass type
(mag) Time Alt. Az. Time Alt. Az. Time Alt. Az.
18 Jul 5.2 00:12:55 10° N 00:17:10 29° WNW 00:21:17 10° WSW visible
18 Jul 5.4 21:46:38 10° NNE 21:50:46 26° E 21:54:27 11° SE visible
18 Jul 4.2 23:24:38 10° N 23:29:32 60° WNW 23:33:51 12° SSW visible
19 Jul 6.2 21:00:36 10° ENE 21:02:06 11° ENE 21:03:36 10° E visible
19 Jul 4.2 22:36:40 10° NNE 22:41:36 62° E 22:45:21 16° S visible
20 Jul 5.3 00:15:31 10° N 00:19:39 27° WNW 00:23:40 10° WSW visible
20 Jul 5.4 21:49:07 10° NNE 21:53:19 27° E 21:56:51 13° SE visible
20 Jul 4.2 23:27:12 10° N 23:32:03 56° WNW 23:36:15 13° SW visible
21 Jul 6.2 21:02:50 10° ENE 21:04:42 12° E 21:06:31 10° ESE visible
21 Jul 4.1 22:39:12 10° NNE 22:44:07 66° E 22:47:45 17° S visible
22 Jul 5.4 00:18:07 10° N 00:22:07 25° WNW 00:26:02 10° WSW visible
22 Jul 5.3 21:51:37 10° NNE 21:55:52 29° E 21:59:15 14° SE visible
22 Jul 4.3 23:29:45 10° N 23:34:32 52° WNW 23:38:38 13° SW visible
23 Jul 6.1 21:05:08 10° NE 21:07:15 13° E 21:09:21 10° ESE visible
23 Jul 4.0 22:41:43 10° NNE 22:46:38 70° ESE 22:50:08 18° S visible
24 Jul 5.4 00:20:42 10° N 00:24:35 24° WNW 00:28:23 10° WSW visible
24 Jul 5.2 21:54:06 10° NNE 21:58:23 30° E 22:01:37 15° SE visible
24 Jul 4.4 23:32:18 10° N 23:37:01 49° WNW 23:41:01 13° SW visible
25 Jul 6.1 21:07:27 10° NE 21:09:49 13° E 21:12:08 10° ESE visible
25 Jul 3.9 22:44:14 10° NNE 22:49:08 74° ESE 22:52:30 19° S visible
26 Jul 5.5 00:23:16 10° N 00:27:02 23° WNW 00:30:42 10° WSW visible
26 Jul 5.1 21:56:34 10° NNE 22:00:54 32° E 22:03:59 16° SSE visible
26 Jul 4.5 23:34:50 10° N 23:39:28 46° WNW 23:43:22 14° SW visible
27 Jul 6.1 21:09:48 10° NE 21:12:21 14° E 21:14:53 10° ESE visible
27 Jul 3.9 22:46:44 10° NNE 22:51:37 79° ESE 22:54:51 20° S visible
